| time (UTC) | temp C | wind direction | speed KPH | gust KPH | rain 1hr cm | rain 24hr cm | rain mn cm | humidity % | barometer mb |
| 20260506070559 | 20 | 0 | 0.0 | 11.3 | 0.00 | 0.00 | 0.00 | 48 | 1007.8 |
| 20260506062100 | 17 | 0 | 0.0 | 3.2 | 0.00 | 0.00 | 0.00 | 54 | 1008.5 |
| 20260506061558 | 17 | 0 | 0.0 | 4.8 | 0.00 | 0.00 | 0.00 | 56 | 1008.6 |
| 20260506061059 | 17 | 0 | 0.0 | 4.8 | 0.00 | 0.00 | 0.00 | 56 | 1008.7 |
| 20260506060559 | 17 | 0 | 0.0 | 4.8 | 0.00 | 0.00 | 0.00 | 56 | 1008.6 |
| 20260506051058 | 14 | 0 | 0.0 | 4.8 | 0.00 | 0.00 | 0.00 | 72 | 1009.2 |
| 20260506050559 | 14 | 0 | 0.0 | 4.8 | 0.00 | 0.00 | 0.00 | 73 | 1009.2 |
| 20260506045058 | 13 | 0 | 0.0 | 1.6 | 0.00 | 0.00 | 0.00 | 77 | 1009.1 |
| 20260506044600 | 13 | 0 | 0.0 | 1.6 | 0.00 | 0.00 | 0.00 | 77 | 1009.1 |
| 20260506044058 | 13 | 0 | 0.0 | 1.6 | 0.00 | 0.00 | 0.00 | 79 | 1009.1 |
| 20260506043558 | 13 | 0 | 0.0 | 1.6 | 0.00 | 0.00 | 0.00 | 79 | 1009.0 |
| 20260506043109 | 13 | 0 | 0.0 | 1.6 | 0.00 | 0.00 | 0.00 | 79 | 1009.0 |
| 20260506042558 | 13 | 0 | 0.0 | 1.6 | 0.00 | 0.00 | 0.00 | 79 | 1009.0 |
| 20260506042059 | 13 | 0 | 0.0 | 0.0 | 0.00 | 0.00 | 0.00 | 79 | 1009.1 |
| 20260506041559 | 13 | 0 | 0.0 | 0.0 | 0.00 | 0.00 | 0.00 | 79 | 1009.2 |
| 20260506041058 | 13 | 0 | 0.0 | 0.0 | 0.00 | 0.00 | 0.00 | 79 | 1009.2 |
| 20260506040600 | 13 | 0 | 0.0 | 0.0 | 0.00 | 0.00 | 0.00 | 79 | 1009.2 |
| 20260506040059 | 13 | 0 | 0.0 | 0.0 | 0.00 | 0.00 | 0.00 | 79 | 1009.3 |
| 20260506035559 | 13 | 0 | 0.0 | 0.0 | 0.00 | 0.00 | 0.00 | 79 | 1009.3 |
| 20260506035059 | 13 | 0 | 0.0 | 0.0 | 0.00 | 0.00 | 0.00 | 79 | 1009.4 |
| 20260506034615 | 13 | 0 | 0.0 | 0.0 | 0.00 | 0.00 | 0.00 | 78 | 1009.4 |
| 20260506034058 | 14 | 0 | 0.0 | 0.0 | 0.00 | 0.00 | 0.00 | 78 | 1009.5 |
| 20260506033558 | 14 | 0 | 0.0 | 0.0 | 0.00 | 0.00 | 0.00 | 78 | 1009.4 |
| 20260506033056 | 13 | 0 | 0.0 | 0.0 | 0.00 | 0.00 | 0.00 | 79 | 1009.3 |
| 20260506032559 | 13 | 0 | 0.0 | 0.0 | 0.00 | 0.00 | 0.00 | 78 | 1009.3 |
| 20260506032059 | 14 | 0 | 0.0 | 0.0 | 0.00 | 0.00 | 0.00 | 78 | 1009.5 |
| 20260506031604 | 14 | 0 | 0.0 | 0.0 | 0.00 | 0.00 | 0.00 | 77 | 1009.4 |
| 20260506031100 | 14 | 0 | 0.0 | 0.0 | 0.00 | 0.00 | 0.00 | 77 | 1009.4 |
| 20260506030558 | 14 | 0 | 0.0 | 0.0 | 0.00 | 0.00 | 0.00 | 76 | 1009.4 |
| 20260506030058 | 15 | 0 | 0.0 | 0.0 | 0.00 | 0.00 | 0.00 | 76 | 1009.4 |
| 20260506025558 | 15 | 0 | 0.0 | 0.0 | 0.00 | 0.00 | 0.00 | 75 | 1009.3 |
| 20260506025058 | 15 | 0 | 0.0 | 0.0 | 0.00 | 0.00 | 0.00 | 74 | 1009.3 |
| 20260506024558 | 15 | 0 | 0.0 | 0.0 | 0.00 | 0.00 | 0.00 | 73 | 1009.2 |
| 20260506024127 | 15 | 0 | 0.0 | 0.0 | 0.00 | 0.00 | 0.00 | 72 | 1009.1 |
| 20260506023558 | 16 | 0 | 0.0 | 0.0 | 0.00 | 0.00 | 0.00 | 72 | 1009.2 |
| 20260506023102 | 16 | 0 | 0.0 | 0.0 | 0.00 | 0.00 | 0.00 | 71 | 1009.1 |
| 20260505220100 | 25 | 0 | 1.6 | 8.0 | 0.00 | 0.00 | 0.00 | 39 | 1007.2 |
| 20260505215603 | 25 | 141 | 0.0 | 16.1 | 0.00 | 0.00 | 0.00 | 39 | 1007.2 |
| 20260505215059 | 25 | 206 | 3.2 | 16.1 | 0.00 | 0.00 | 0.00 | 39 | 1007.2 |
| 20260505214635 | 25 | 136 | 1.6 | 8.0 | 0.00 | 0.00 | 0.00 | 39 | 1007.2 |
| 20260505214059 | 25 | 131 | 1.6 | 8.0 | 0.00 | 0.00 | 0.00 | 39 | 1007.2 |
| 20260505213648 | 25 | 140 | 1.6 | 8.0 | 0.00 | 0.00 | 0.00 | 38 | 1007.1 |
| 20260505213111 | 25 | 0 | 0.0 | 8.0 | 0.00 | 0.00 | 0.00 | 38 | 1007.1 |
| 20260505212558 | 25 | 0 | 1.6 | 9.7 | 0.00 | 0.00 | 0.00 | 37 | 1007.1 |
| 20260505212058 | 25 | 0 | 1.6 | 9.7 | 0.00 | 0.00 | 0.00 | 36 | 1007.1 |
| 20260505211602 | 25 | 0 | 0.0 | 9.7 | 0.00 | 0.00 | 0.00 | 37 | 1007.2 |
| 20260505211059 | 25 | 0 | 3.2 | 16.1 | 0.00 | 0.00 | 0.00 | 37 | 1007.2 |
| 20260505210559 | 25 | 6 | 1.6 | 17.7 | 0.00 | 0.00 | 0.00 | 37 | 1007.2 |
| 20260505210100 | 25 | 297 | 3.2 | 17.7 | 0.00 | 0.00 | 0.00 | 36 | 1007.1 |
| 20260505205558 | 25 | 86 | 3.2 | 12.9 | 0.00 | 0.00 | 0.00 | 36 | 1007.1 |
| 20260505205058 | 25 | 0 | 3.2 | 11.3 | 0.00 | 0.00 | 0.00 | 36 | 1007.1 |
| 20260505204601 | 26 | 0 | 1.6 | 11.3 | 0.00 | 0.00 | 0.00 | 36 | 1007.0 |
| 20260505204059 | 26 | 245 | 3.2 | 11.3 | 0.00 | 0.00 | 0.00 | 36 | 1007.0 |
| 20260505203601 | 26 | 0 | 1.6 | 12.9 | 0.00 | 0.00 | 0.00 | 36 | 1007.1 |
| 20260505203100 | 26 | 315 | 3.2 | 12.9 | 0.00 | 0.00 | 0.00 | 35 | 1007.0 |
| 20260505202559 | 26 | 211 | 0.0 | 9.7 | 0.00 | 0.00 | 0.00 | 36 | 1007.0 |
| 20260505202058 | 26 | 255 | 0.0 | 11.3 | 0.00 | 0.00 | 0.00 | 36 | 1007.0 |
| 20260505201600 | 26 | 270 | 3.2 | 16.1 | 0.00 | 0.00 | 0.00 | 36 | 1006.9 |
| 20260505201059 | 26 | 356 | 3.2 | 17.7 | 0.00 | 0.00 | 0.00 | 36 | 1006.9 |
| 20260505200559 | 27 | 283 | 4.8 | 19.3 | 0.00 | 0.00 | 0.00 | 35 | 1007.1 |
| 20260505195558 | 27 | 248 | 4.8 | 25.7 | 0.00 | 0.00 | 0.00 | 34 | 1007.0 |
| 20260505195058 | 27 | 120 | 6.4 | 25.7 | 0.00 | 0.00 | 0.00 | 34 | 1007.1 |
| 20260505194610 | 27 | 49 | 4.8 | 14.5 | 0.00 | 0.00 | 0.00 | 35 | 1007.0 |
| 20260505194058 | 27 | 210 | 3.2 | 17.7 | 0.00 | 0.00 | 0.00 | 35 | 1006.9 |
| 20260505193558 | 27 | 298 | 6.4 | 17.7 | 0.00 | 0.00 | 0.00 | 34 | 1007.1 |
| 20260505193100 | 28 | 138 | 1.6 | 16.1 | 0.00 | 0.00 | 0.00 | 33 | 1007.0 |
| 20260505192558 | 28 | 249 | 4.8 | 16.1 | 0.00 | 0.00 | 0.00 | 33 | 1007.0 |
| 20260505192100 | 27 | 274 | 4.8 | 19.3 | 0.00 | 0.00 | 0.00 | 34 | 1007.2 |
| 20260505191607 | 27 | 320 | 4.8 | 19.3 | 0.00 | 0.00 | 0.00 | 34 | 1007.2 |
| 20260505191101 | 28 | 323 | 4.8 | 17.7 | 0.00 | 0.00 | 0.00 | 35 | 1007.4 |
| 20260505190558 | 27 | 157 | 1.6 | 16.1 | 0.00 | 0.00 | 0.00 | 34 | 1007.3 |
| 20260505190107 | 27 | 264 | 4.8 | 16.1 | 0.00 | 0.00 | 0.00 | 36 | 1007.6 |
| 20260505185559 | 27 | 285 | 4.8 | 17.7 | 0.00 | 0.00 | 0.00 | 38 | 1007.7 |
| 20260505185059 | 27 | 194 | 4.8 | 20.9 | 0.00 | 0.00 | 0.00 | 36 | 1007.8 |
| 20260505184604 | 27 | 285 | 4.8 | 20.9 | 0.00 | 0.00 | 0.00 | 37 | 1007.8 |
| 20260505184059 | 27 | 330 | 4.8 | 16.1 | 0.00 | 0.00 | 0.00 | 36 | 1007.8 |
| 20260505183600 | 27 | 262 | 6.4 | 14.5 | 0.00 | 0.00 | 0.00 | 37 | 1007.8 |
| 20260505153059 | 25 | 299 | 4.8 | 17.7 | 0.00 | 0.00 | 0.00 | 45 | 1009.4 |
| 20260505152559 | 25 | 163 | 4.8 | 17.7 | 0.00 | 0.00 | 0.00 | 45 | 1009.4 |
| 20260505152059 | 25 | 121 | 4.8 | 17.7 | 0.00 | 0.00 | 0.00 | 45 | 1009.5 |
| 20260505151621 | 25 | 325 | 4.8 | 17.7 | 0.00 | 0.00 | 0.00 | 45 | 1009.5 |
| 20260505151102 | 25 | 125 | 4.8 | 20.9 | 0.00 | 0.00 | 0.00 | 44 | 1009.4 |
| 20260505150559 | 25 | 274 | 6.4 | 20.9 | 0.00 | 0.00 | 0.00 | 43 | 1009.5 |
| 20260505140558 | 23 | 302 | 3.2 | 12.9 | 0.00 | 0.00 | 0.00 | 47 | 1009.8 |
| 20260505124600 | 20 | 285 | 0.0 | 3.2 | 0.00 | 0.00 | 0.00 | 56 | 1010.2 |
| 20260505124059 | 20 | 188 | 0.0 | 3.2 | 0.00 | 0.00 | 0.00 | 59 | 1010.3 |
| 20260505123558 | 20 | 354 | 0.0 | 3.2 | 0.00 | 0.00 | 0.00 | 57 | 1010.1 |
| 20260505123101 | 20 | 0 | 0.0 | 3.2 | 0.00 | 0.00 | 0.00 | 59 | 1010.1 |
| 20260505122559 | 20 | 0 | 0.0 | 3.2 | 0.00 | 0.00 | 0.00 | 61 | 1010.1 |
| 20260505122059 | 19 | 0 | 0.0 | 1.6 | 0.00 | 0.00 | 0.00 | 64 | 1010.0 |
| 20260505121601 | 19 | 111 | 0.0 | 1.6 | 0.00 | 0.00 | 0.00 | 65 | 1010.0 |
| 20260505121058 | 18 | 0 | 0.0 | 1.6 | 0.00 | 0.00 | 0.00 | 64 | 1010.1 |
| 20260505120558 | 18 | 0 | 0.0 | 0.0 | 0.00 | 0.00 | 0.00 | 65 | 1010.2 |
| 20260505120124 | 17 | 0 | 0.0 | 0.0 | 0.00 | 0.00 | 0.00 | 66 | 1010.2 |
| 20260505115558 | 17 | 0 | 0.0 | 0.0 | 0.00 | 0.00 | 0.00 | 69 | 1010.3 |
| 20260505115059 | 16 | 0 | 0.0 | 0.0 | 0.00 | 0.00 | 0.00 | 74 | 1010.2 |
| 20260505114601 | 15 | 0 | 0.0 | 0.0 | 0.00 | 0.00 | 0.00 | 77 | 1010.2 |
| 20260505114102 | 13 | 0 | 0.0 | 0.0 | 0.00 | 0.00 | 0.00 | 79 | 1010.2 |
| 20260505113558 | 13 | 0 | 0.0 | 1.6 | 0.00 | 0.00 | 0.00 | 80 | 1010.0 |
| 20260505113101 | 13 | 0 | 0.0 | 1.6 | 0.00 | 0.00 | 0.00 | 80 | 1009.9 |
| 20260505112558 | 12 | 0 | 0.0 | 1.6 | 0.00 | 0.00 | 0.00 | 81 | 1010.0 |
| 20260505112058 | 12 | 0 | 0.0 | 0.0 | 0.00 | 0.00 | 0.00 | 84 | 1010.0 |
| 20260505111601 | 11 | 0 | 0.0 | 0.0 | 0.00 | 0.00 | 0.00 | 84 | 1010.0 |
| 20260505111058 | 11 | 0 | 0.0 | 0.0 | 0.00 | 0.00 | 0.00 | 83 | 1010.0 |
| 20260505110602 | 11 | 0 | 0.0 | 0.0 | 0.00 | 0.00 | 0.00 | 83 | 1010.0 |
| 20260505102058 | 10 | 0 | 0.0 | 0.0 | 0.00 | 0.00 | 0.00 | 83 | 1009.4 |
| 20260505101600 | 10 | 0 | 0.0 | 0.0 | 0.00 | 0.00 | 0.00 | 83 | 1009.4 |
| 20260505101058 | 10 | 0 | 0.0 | 0.0 | 0.00 | 0.00 | 0.00 | 83 | 1009.3 |
| 20260505100559 | 10 | 0 | 0.0 | 0.0 | 0.00 | 0.00 | 0.00 | 82 | 1009.3 |
| 20260505095558 | 10 | 0 | 0.0 | 0.0 | 0.00 | 0.00 | 0.00 | 82 | 1009.4 |
| 20260505095058 | 10 | 0 | 0.0 | 0.0 | 0.00 | 0.00 | 0.00 | 82 | 1009.4 |
| 20260505094601 | 11 | 0 | 0.0 | 0.0 | 0.00 | 0.00 | 0.00 | 82 | 1009.2 |
| 20260505094058 | 11 | 0 | 0.0 | 1.6 | 0.00 | 0.00 | 0.00 | 82 | 1009.2 |
| 20260505093558 | 11 | 0 | 0.0 | 1.6 | 0.00 | 0.00 | 0.00 | 81 | 1009.1 |
| 20260505093059 | 11 | 0 | 0.0 | 1.6 | 0.00 | 0.00 | 0.00 | 81 | 1009.1 |
| 20260505092558 | 11 | 0 | 0.0 | 1.6 | 0.00 | 0.00 | 0.00 | 81 | 1009.0 |
| 20260505092058 | 11 | 0 | 0.0 | 1.6 | 0.00 | 0.00 | 0.00 | 80 | 1009.0 |
| 20260505091606 | 11 | 0 | 0.0 | 1.6 | 0.00 | 0.00 | 0.00 | 80 | 1009.2 |
| 20260505091104 | 11 | 0 | 0.0 | 1.6 | 0.00 | 0.00 | 0.00 | 79 | 1009.2 |
| 20260505090559 | 11 | 0 | 0.0 | 1.6 | 0.00 | 0.00 | 0.00 | 79 | 1009.3 |
| 20260505090100 | 12 | 210 | 0.0 | 1.6 | 0.00 | 0.00 | 0.00 | 78 | 1009.1 |
| 20260505085559 | 12 | 0 | 0.0 | 1.6 | 0.00 | 0.00 | 0.00 | 78 | 1009.1 |
| 20260505085059 | 12 | 210 | 0.0 | 1.6 | 0.00 | 0.00 | 0.00 | 77 | 1009.0 |
| 20260505084600 | 12 | 0 | 0.0 | 1.6 | 0.00 | 0.00 | 0.00 | 76 | 1009.1 |
| 20260505084101 | 12 | 0 | 0.0 | 3.2 | 0.00 | 0.00 | 0.00 | 76 | 1009.1 |
| 20260505083558 | 12 | 0 | 0.0 | 3.2 | 0.00 | 0.00 | 0.00 | 75 | 1009.1 |
| 20260505083059 | 12 | 49 | 0.0 | 3.2 | 0.00 | 0.00 | 0.00 | 74 | 1009.1 |
| 20260505082558 | 12 | 0 | 0.0 | 1.6 | 0.00 | 0.00 | 0.00 | 74 | 1009.0 |
| 20260505082058 | 12 | 0 | 0.0 | 0.0 | 0.00 | 0.00 | 0.00 | 74 | 1009.0 |
| 20260505081605 | 13 | 0 | 0.0 | 0.0 | 0.00 | 0.00 | 0.00 | 74 | 1008.9 |
| 20260505081057 | 13 | 0 | 0.0 | 1.6 | 0.00 | 0.00 | 0.00 | 74 | 1008.9 |
| 20260505080559 | 13 | 91 | 0.0 | 1.6 | 0.00 | 0.00 | 0.00 | 74 | 1008.9 |
| 20260505080104 | 12 | 0 | 0.0 | 1.6 | 0.00 | 0.00 | 0.00 | 74 | 1008.9 |
| 20260505075558 | 12 | 0 | 0.0 | 1.6 | 0.00 | 0.00 | 0.00 | 75 | 1008.9 |
| 20260505075101 | 12 | 0 | 0.0 | 1.6 | 0.00 | 0.00 | 0.00 | 75 | 1008.8 |
| 20260505074609 | 12 | 0 | 0.0 | 1.6 | 0.00 | 0.00 | 0.00 | 75 | 1008.7 |
| 20260505074101 | 12 | 0 | 0.0 | 0.0 | 0.00 | 0.00 | 0.00 | 75 | 1008.8 |
| 20260505073559 | 12 | 0 | 0.0 | 1.6 | 0.00 | 0.00 | 0.00 | 75 | 1008.7 |
| 20260505073113 | 12 | 0 | 0.0 | 1.6 | 0.00 | 0.00 | 0.00 | 75 | 1008.8 |
| 20260505072558 | 12 | 0 | 0.0 | 0.0 | 0.00 | 0.00 | 0.00 | 75 | 1008.8 |
| 20260505072058 | 12 | 0 | 0.0 | 1.6 | 0.00 | 0.00 | 0.00 | 75 | 1008.8 |
| 20260505071610 | 12 | 0 | 0.0 | 1.6 | 0.00 | 0.00 | 0.00 | 75 | 1008.8 |
| 20260505071058 | 12 | 0 | 0.0 | 0.0 | 0.00 | 0.00 | 0.00 | 74 | 1008.9 |